[[{"header":{"parameterUnit":"m.s-1","parameterCategory":2,"la1":30.2991,"la2":30.254,"lo1":-89.0895,"lo2":-89.0444,"dy":0.0017,"dx":0.0017,"nx":28,"ny":28,"refTime":"2024-07-04T21:00:00:Z","depth":"0","parameterNumber":2,"parameterNumberName":"U-component_of_CURRENTS"},"data":[0,0,0,0,0,0,0,0,0,0,0,0,0,0,0,0,0,0,0,0,0,0,0,0,0,0,0,0,0,0,0,0,0,0,0,0,0,0,0,0,0,0,0,0,0,0,0,0,0,0,0,0,0,0,0,0,0,0,-0.2457,-0.2458,0,-0.2464,-0.2463,-0.2462,-0.2394,-0.2393,-0.2392,-0.2391,-0.2256,-0.2253,-0.225,0,0,0,0,0,0,0,0,0,0,0,0,0,-0.2252,-0.2256,-0.2457,-0.2458,-0.2459,-0.2464,-0.2463,-0.2462,-0.2394,-0.2393,-0.2392,-0.2391,-0.2257,-0.2253,-0.225,0,0,0,0,0,0,0,0,0,0,0,0,0,-0.2298,-0.2257,-0.2457,-0.2434,-0.2432,-0.2464,-0.2463,-0.2462,-0.2394,-0.2393,-0.2391,-0.239,-0.2258,-0.2254,-0.225,-0.2251,0,0,-0.2237,-0.2235,0,0,0,0,0,0,0,0,-0.2296,-0.2305,-0.2436,-0.2435,-0.2434,-0.2436,-0.2342,-0.2388,-0.2394,-0.2397,-0.2391,-0.2389,-0.2311,-0.2302,-0.2293,-0.2245,-0.2239,-0.2237,-0.2234,-0.2232,-0.2231,0,0,0,0,0,0,0,-0.2293,-0.2303,-0.2449,-0.2437,-0.2436,-0.2378,-0.2383,-0.2349,-0.2351,-0.2397,-0.2395,-0.2413,-0.2307,-0.2297,-0.2289,-0.2237,-0.2237,-0.2233,-0.223,-0.2229,-0.2226,-0.2228,0,0,0,0,0,0,-0.2323,-0.2302,-0.2449,-0.245,-0.2372,-0.2384,-0.2389,-0.2428,-0.2354,-0.2346,-0.2414,-0.241,-0.2305,-0.2294,-0.2284,-0.2313,-0.2232,-0.2228,-0.2226,-0.2223,-0.2226,-0.2229,0,0,0,0,0,0,-0.2319,-0.2337,-0.2449,-0.2382,-0.2394,-0.2391,-0.2434,-0.2429,-0.2421,-0.2371,-0.2357,-0.2413,-0.2304,-0.229,-0.2274,-0.2305,-0.2227,-0.2223,-0.222,-0.2224,-0.2228,-0.235,0,0,0,0,0,0,-0.2313,-0.2336,-0.235,-0.2386,-0.2399,-0.2484,-0.2436,-0.243,-0.244,-0.2434,-0.2365,-0.2351,-0.2302,-0.2281,-0.227,-0.2298,-0.222,-0.2217,-0.2222,-0.2226,-0.2343,-0.2357,-0.2369,0,0,0,0,0,-0.2306,-0.2351,-0.2351,-0.2368,-0.2428,-0.2487,-0.2487,-0.2471,-0.2442,-0.2453,-0.2411,-0.2353,-0.2302,-0.2279,-0.2266,-0.2294,-0.2215,-0.2221,-0.2226,-0.2337,-0.2354,-0.2369,0,0,0,0,0,0,-0.2262,-0.2351,-0.2351,-0.2417,-0.2454,-0.248,-0.2491,-0.2482,-0.2458,-0.2441,-0.2377,-0.2362,-0.2361,-0.2318,-0.2295,-0.2311,-0.2252,-0.2255,-0.2341,-0.2357,-0.237,-0.2338,-0.2216,0,0,0,0,0,-0.2266,-0.2322,-0.2388,-0.2433,-0.2463,-0.2474,-0.2487,-0.2486,-0.2486,-0.2473,-0.2433,-0.2394,-0.2375,-0.2358,-0.233,-0.2333,-0.2287,-0.2347,-0.2361,-0.2372,-0.2341,-0.2333,-0.2343,-0.2247,-0.2246,-0.2246,0,0,-0.2251,-0.2315,-0.2337,-0.2427,-0.2449,-0.2502,-0.2476,-0.2517,-0.254,-0.2461,-0.2464,-0.2435,-0.2388,-0.2396,-0.2393,-0.2361,-0.2383,-0.2379,-0.2389,-0.235,-0.234,-0.2349,-0.2357,-0.225,-0.225,-0.2249,0,0,-0.2282,-0.2324,-0.2385,-0.2429,-0.2497,-0.2516,-0.2537,-0.2575,-0.257,-0.2587,-0.254,-0.2536,-0.2499,-0.2483,-0.2466,-0.2538,-0.2455,-0.2532,-0.2567,-0.2563,-0.2569,-0.2575,-0.2554,-0.2557,-0.2537,-0.2538,-0.2538,0,-0.2259,-0.2351,-0.2404,-0.2478,-0.2513,-0.2532,-0.259,-0.2602,-0.2621,-0.2628,-0.2602,-0.2583,-0.2543,-0.2559,-0.257,-0.2566,-0.2532,-0.251,-0.2578,-0.2582,-0.2585,-0.2562,-0.2563,-0.2544,-0.2543,-0.2543,-0.2542,0,-0.2339,-0.2401,-0.2445,-0.2545,-0.2589,-0.2642,-0.2691,-0.2716,-0.2714,-0.2721,-0.274,-0.2702,-0.2684,-0.2691,-0.2634,-0.2652,-0.2611,-0.2598,-0.2532,-0.2602,-0.2574,-0.2573,-0.2554,-0.2551,-0.2549,-0.2548,0,0,-0.2305,-0.247,-0.2474,-0.2505,-0.2625,-0.2649,-0.2733,-0.2794,-0.2781,-0.2832,-0.2824,-0.2839,-0.2808,-0.2785,-0.2746,-0.2727,-0.2728,-0.2655,-0.2652,-0.2625,-0.2694,-0.2572,-0.2558,-0.2719,-0.2719,-0.2719,-0.2674,0,-0.2338,-0.2457,-0.255,-0.2615,-0.2666,-0.2734,-0.2783,-0.2833,-0.2839,-0.2829,-0.2861,-0.2817,-0.2852,-0.2792,-0.2816,-0.2704,-0.2724,-0.2739,-0.2636,-0.2632,-0.2507,-0.2553,-0.2329,-0.226,-0.2672,-0.2672,-0.2672,0,-0.2369,-0.2441,-0.2533,-0.2616,-0.2643,-0.2683,-0.2719,-0.2763,-0.2805,-0.2812,-0.2855,-0.2821,-0.2822,-0.2806,-0.2787,-0.2785,-0.2754,-0.2702,-0.2701,-0.2527,-0.2506,-0.2253,-0.2241,-0.2192,-0.2669,-0.2669,-0.2669,0,-0.2268,-0.2405,-0.2462,-0.2497,-0.2618,-0.2649,-0.2689,-0.2743,-0.2748,-0.2756,-0.2732,-0.2783,-0.2727,-0.2748,-0.2709,-0.2711,-0.2654,-0.2657,-0.2559,-0.255,-0.2303,-0.2272,-0.221,-0.2669,-0.2669,-0.267,-0.267,0,-0.2257,-0.2281,-0.2397,-0.242,-0.2424,-0.254,-0.2527,-0.2581,-0.262,-0.2603,-0.2682,-0.265,-0.2691,-0.2682,-0.269,-0.2618,-0.2681,-0.2544,-0.2524,-0.2344,-0.2318,-0.2215,-0.229,-0.2668,-0.2668,-0.2669,-0.2669,0,-0.2145,-0.2243,-0.2277,-0.2375,-0.2384,-0.2367,-0.2428,-0.2412,-0.2476,-0.2447,-0.2441,-0.2506,-0.2502,-0.2579,-0.2547,-0.2535,-0.2438,-0.2484,-0.2261,-0.2214,-0.2016,-0.2107,-0.2074,-0.2026,-0.2311,-0.2308,-0.2305,0,-0.2113,-0.2126,-0.2185,-0.2175,-0.2216,-0.2216,-0.2221,-0.2315,-0.2312,-0.2356,-0.233,-0.233,-0.2353,-0.2323,-0.2262,-0.227,-0.2357,-0.2045,-0.2012,-0.1952,-0.2041,-0.2144,-0.2116,-0.1752,-0.1745,-0.1739,-0.1734,0,-0.2017,-0.2029,-0.2053,-0.2031,-0.2023,-0.2022,-0.2039,-0.202,-0.2124,-0.2127,-0.2123,-0.2131,-0.2105,-0.1971,-0.1969,-0.1952,-0.1945,-0.1919,-0.191,-0.1629,-0.1684,-0.1642,-0.1852,-0.1682,-0.1687,-0.1691,-0.1694,-0.1696,-0.1908,-0.1879,-0.1898,-0.1862,-0.1856,-0.1831,-0.1778,-0.1823,-0.1814,-0.1789,-0.1897,-0.1855,-0.1732,-0.1671,-0.1646,-0.138,-0.1618,-0.1291,-0.1417,-0.1534,-0.1448,-0.1536,-0.1318,-0.1321,-0.1324,-0.1326,-0.1328,0,-0.1777,-0.1759,-0.1728,-0.1691,-0.1638,-0.1683,-0.166,-0.1602,-0.1552,-0.1538,-0.1548,-0.1403,-0.1271,-0.1184,-0.0912,-0.0855,-0.0884,-0.0889,-0.0966,-0.097,-0.1033,-0.0959,-0.0588,-0.0588,-0.0588,-0.0588,-0.0588,-0.0588,-0.1709,-0.1633,-0.1624,-0.1493,-0.1461,-0.1356,-0.1316,-0.1253,-0.1213,-0.1046,-0.0928,-0.0912,-0.0834,-0.085,-0.0672,-0.0618,-0.0705,-0.0692,-0.0862,-0.0873,-0.092,-0.0965,-0.0905,-0.0529,-0.053,-0.0641,-0.0642,-0.0643]},{"header":{"parameterUnit":"m.s-1","parameterCategory":2,"la1":30.2991,"la2":30.254,"lo1":-89.0895,"lo2":-89.0444,"dy":0.0017,"dx":0.0017,"nx":28,"ny":28,"refTime":"2024-07-04T21:00:00:Z","depth":"0","parameterNumber":3,"parameterNumberName":"V-component_of_CURRENTS"},"data":[0,0,0,0,0,0,0,0,0,0,0,0,0,0,0,0,0,0,0,0,0,0,0,0,0,0,0,0,0,0,0,0,0,0,0,0,0,0,0,0,0,0,0,0,0,0,0,0,0,0,0,0,0,0,0,0,0,0,-0.0205,-0.0204,0,-0.0162,-0.0162,-0.0161,-0.0116,-0.0115,-0.0115,-0.0114,-0.0046,-0.0045,-0.0043,0,0,0,0,0,0,0,0,0,0,0,0,0,-0.0178,-0.018,-0.0205,-0.0204,-0.0204,-0.0162,-0.0162,-0.0161,-0.0116,-0.0115,-0.0114,-0.0114,-0.0046,-0.0045,-0.0043,0,0,0,0,0,0,0,0,0,0,0,0,0,-0.0167,-0.018,-0.0205,-0.0177,-0.0174,-0.0162,-0.0162,-0.0161,-0.0116,-0.0115,-0.0114,-0.0114,-0.0047,-0.0045,-0.0043,-0.0047,0,0,-0.0037,-0.0036,0,0,0,0,0,0,0,0,-0.0168,-0.0168,-0.0182,-0.0179,-0.0176,-0.0144,-0.0127,-0.0122,-0.0116,-0.0137,-0.0114,-0.0113,-0.0078,-0.0073,-0.0066,-0.0043,-0.004,-0.0037,-0.0036,-0.0035,-0.0034,0,0,0,0,0,0,0,-0.0169,-0.0169,-0.0186,-0.0181,-0.0178,-0.0144,-0.0142,-0.0126,-0.0111,-0.0135,-0.0132,-0.0129,-0.0076,-0.0068,-0.0064,-0.0039,-0.0037,-0.0035,-0.0034,-0.0033,0.0044,0.0045,0,0,0,0,0,0,-0.0182,-0.0171,-0.0188,-0.0185,-0.0171,-0.0145,-0.0143,-0.0154,-0.0111,-0.0105,-0.013,-0.0127,-0.0072,-0.0066,-0.0061,-0.0047,-0.0035,-0.0033,-0.0032,0.0043,0.0044,0.0045,0,0,0,0,0,0,-0.0181,-0.0184,-0.019,-0.0177,-0.0175,-0.0147,-0.016,-0.0154,-0.0146,-0.0108,-0.0101,-0.0128,-0.0071,-0.0064,-0.0039,-0.0045,-0.0032,-0.003,0.0042,0.0043,0.0044,-0.0029,0,0,0,0,0,0,-0.0181,-0.0185,-0.0198,-0.0179,-0.0177,-0.0193,-0.0161,-0.0154,-0.0146,-0.0142,-0.0104,-0.0097,-0.007,-0.0042,-0.0037,-0.0042,-0.0029,0.0041,0.0043,0.0044,-0.0028,-0.003,-0.0033,0,0,0,0,0,-0.0181,-0.0215,-0.0199,-0.0201,-0.0197,-0.0194,-0.019,-0.0165,-0.0147,-0.0153,-0.0114,-0.0098,-0.0027,-0.004,-0.0034,-0.0039,0.004,0.0042,0.0044,-0.0027,-0.003,-0.0033,0,0,0,0,0,0,-0.0211,-0.0213,-0.0196,-0.0228,-0.0212,-0.0187,-0.0199,-0.0172,-0.0147,-0.0144,-0.0097,-0.0088,-0.0065,-0.0037,-0.0052,-0.0006,0.0013,0.0016,-0.0043,-0.0045,-0.0048,-0.0086,-0.0027,0,0,0,0,0,-0.0224,-0.0249,-0.0232,-0.0254,-0.0256,-0.0224,-0.022,-0.0201,-0.0176,-0.0164,-0.0131,-0.0089,-0.0053,-0.0038,-0.0006,0.0007,-0.0029,0.0016,0.0013,0.001,-0.0013,-0.0061,-0.0072,0.0051,0.0051,0.0051,0,0,-0.0236,-0.0244,-0.0254,-0.0261,-0.0252,-0.0266,-0.0221,-0.0226,-0.0221,-0.0162,-0.0149,-0.0104,-0.0049,-0.0027,-0.0014,-0.0006,-0.0049,0.0013,0.0009,-0.0012,-0.0061,-0.0074,-0.0085,0.0052,0.0052,0.0052,0,0,-0.029,-0.0288,-0.0331,-0.0325,-0.0322,-0.0303,-0.0307,-0.0282,-0.0257,-0.0235,-0.0182,-0.0144,-0.0094,-0.0057,-0.003,-0.0028,-0.006,-0.0005,-0.0056,-0.0103,-0.0115,-0.0126,-0.0226,-0.0246,-0.0008,-0.0008,-0.0008,0,-0.0303,-0.0353,-0.0338,-0.0374,-0.0377,-0.0325,-0.0358,-0.0327,-0.0288,-0.0284,-0.024,-0.0183,-0.0111,-0.0106,-0.0071,-0.0039,-0.0093,-0.0055,-0.0113,-0.0124,-0.0134,-0.0234,-0.0255,-0.0011,-0.0011,-0.001,-0.001,0,-0.0386,-0.0417,-0.0444,-0.047,-0.047,-0.0488,-0.0449,-0.0439,-0.0396,-0.0368,-0.0351,-0.0265,-0.0237,-0.0188,-0.0113,-0.0139,-0.0167,-0.0117,-0.0122,-0.0153,-0.0254,-0.0275,-0.0016,-0.0015,-0.0014,-0.0013,0,0,-0.0431,-0.0492,-0.0498,-0.0519,-0.052,-0.0526,-0.0532,-0.053,-0.0554,-0.049,-0.0535,-0.0404,-0.037,-0.0334,-0.0255,-0.0257,-0.0336,-0.0208,-0.0209,-0.0339,-0.0502,-0.0269,-0.0269,-0.0309,-0.0312,-0.0314,-0.0561,0,-0.0494,-0.0583,-0.0593,-0.0646,-0.068,-0.0647,-0.0662,-0.0648,-0.0626,-0.0654,-0.0577,-0.0576,-0.0424,-0.0418,-0.0392,-0.0355,-0.0387,-0.0278,-0.0425,-0.0431,-0.0243,-0.0281,-0.0138,-0.0321,-0.058,-0.0584,-0.0586,0,-0.0572,-0.0615,-0.0695,-0.0739,-0.0754,-0.0771,-0.0804,-0.0809,-0.0828,-0.0822,-0.0822,-0.0782,-0.0762,-0.063,-0.0638,-0.0585,-0.0544,-0.0517,-0.0526,-0.0295,-0.0231,-0.0319,-0.0348,-0.0079,-0.0618,-0.0615,-0.0613,0,-0.0613,-0.0683,-0.0748,-0.0758,-0.0803,-0.0825,-0.0838,-0.0862,-0.0902,-0.0946,-0.1024,-0.0991,-0.1017,-0.0958,-0.0827,-0.0766,-0.0871,-0.0792,-0.0578,-0.0567,-0.0463,-0.0432,-0.0267,-0.083,-0.083,-0.0829,-0.0828,0,-0.0681,-0.0725,-0.0766,-0.0797,-0.0855,-0.087,-0.0945,-0.096,-0.1049,-0.1156,-0.1112,-0.1219,-0.1095,-0.1112,-0.0972,-0.0833,-0.0995,-0.0611,-0.06,-0.0479,-0.0448,-0.0217,-0.0164,-0.0838,-0.0836,-0.0834,-0.0833,0,-0.0722,-0.076,-0.082,-0.0869,-0.088,-0.0913,-0.1001,-0.1076,-0.1157,-0.1319,-0.1359,-0.1438,-0.1448,-0.1326,-0.127,-0.1023,-0.0752,-0.0828,-0.0699,-0.0658,-0.0082,-0.0042,0.0004,0.0146,-0.0643,-0.0639,-0.0635,0,-0.0759,-0.0799,-0.0851,-0.0879,-0.0898,-0.0952,-0.1012,-0.1098,-0.1214,-0.1456,-0.1571,-0.1652,-0.1708,-0.1535,-0.1135,-0.0896,-0.0709,-0.0546,-0.0319,-0.0027,0.0019,0.0029,0.0144,-0.0284,-0.0277,-0.0272,-0.0268,0,-0.0804,-0.0817,-0.086,-0.0911,-0.0964,-0.1047,-0.1156,-0.1277,-0.1443,-0.1611,-0.1861,-0.1943,-0.1754,-0.1388,-0.0952,-0.074,-0.0296,-0.0418,-0.0179,0.0287,0.0353,0.0489,-0.0195,-0.0221,-0.0225,-0.0229,-0.0231,-0.0233,-0.0816,-0.0846,-0.0893,-0.0938,-0.1006,-0.114,-0.1226,-0.1402,-0.1606,-0.1861,-0.1987,-0.202,-0.1435,-0.0798,-0.0567,0.0209,0.0028,0.0482,0.0472,0.0431,0.0721,0.0176,0.0258,0.0256,0.0254,0.0253,0.0252,0,-0.083,-0.0869,-0.0917,-0.0991,-0.106,-0.1097,-0.1321,-0.1433,-0.1667,-0.1831,-0.1999,-0.1423,-0.0835,-0.0222,0.0768,0.1104,0.1134,0.1238,0.1251,0.1306,0.0767,0.0961,0.1281,0.1281,0.1281,0.1281,0.128,0.128,-0.0847,-0.089,-0.0916,-0.1008,-0.1058,-0.1173,-0.1294,-0.1487,-0.1609,-0.1587,-0.1341,-0.1187,-0.0242,0.094,0.1765,0.1832,0.2002,0.1936,0.2002,0.1648,0.1577,0.1509,0.1716,0.2188,0.2189,0.2597,0.2601,0.2604]}],[{"header":{"parameterUnit":"m.s-1","parameterCategory":2,"la1":30.2991,"la2":30.254,"lo1":-89.0895,"lo2":-89.0444,"dy":0.0017,"dx":0.0017,"nx":28,"ny":28,"refTime":"2024-07-04T21:00:00:Z","depth":"2","parameterNumber":2,"parameterNumberName":"U-component_of_CURRENTS"},"data":[0,0,0,0,0,0,0,0,0,0,0,0,0,0,0,0,0,0,0,0,0,0,0,0,0,0,0,0,0,0,0,0,0,0,0,0,0,0,0,0,0,0,0,0,0,0,0,0,0,0,0,0,0,0,0,0,0,0,-0.2182,-0.2183,0,-0.2273,-0.2275,-0.2277,-0.2311,-0.231,-0.2309,-0.2308,-0.2636,-0.2646,-0.2656,0,0,0,0,0,0,0,0,0,0,0,0,0,-0.2118,-0.2119,-0.2182,-0.2183,-0.2183,-0.2273,-0.2275,-0.2278,-0.2311,-0.231,-0.2308,-0.2307,-0.2633,-0.2645,-0.2657,0,0,0,0,0,0,0,0,0,0,0,0,0,-0.218,-0.212,-0.2182,-0.2203,-0.2205,-0.2273,-0.2275,-0.2278,-0.2312,-0.231,-0.2308,-0.2306,-0.2629,-0.2644,-0.2658,-0.2786,0,0,-0.2704,-0.271,0,0,0,0,0,0,0,0,-0.2177,-0.2184,-0.22,-0.2202,-0.2204,-0.227,-0.2372,-0.2456,-0.2312,-0.2282,-0.2307,-0.2305,-0.2531,-0.2553,-0.2586,-0.2802,-0.2816,-0.2705,-0.2714,-0.272,-0.2724,0,0,0,0,0,0,0,-0.2172,-0.2181,-0.2229,-0.22,-0.2202,-0.2234,-0.2242,-0.2389,-0.2428,-0.2285,-0.2285,-0.2279,-0.2535,-0.2571,-0.2594,-0.2821,-0.2704,-0.2718,-0.2727,-0.2733,-0.3052,-0.3051,0,0,0,0,0,0,-0.2139,-0.2176,-0.2226,-0.223,-0.2174,-0.2236,-0.2245,-0.2259,-0.2421,-0.2439,-0.2281,-0.228,-0.2547,-0.2577,-0.2606,-0.2788,-0.272,-0.2734,-0.2743,-0.3052,-0.3051,-0.3051,0,0,0,0,0,0,-0.2138,-0.2143,-0.2222,-0.2196,-0.2207,-0.2237,-0.2254,-0.2262,-0.2304,-0.2413,-0.2438,-0.2313,-0.2546,-0.2585,-0.2788,-0.2801,-0.2741,-0.2754,-0.3052,-0.3052,-0.3051,-0.3141,0,0,0,0,0,0,-0.2136,-0.2143,-0.2152,-0.2194,-0.2207,-0.2284,-0.2255,-0.2264,-0.2298,-0.2299,-0.2452,-0.2478,-0.2548,-0.2766,-0.2803,-0.282,-0.2766,-0.3053,-0.3052,-0.3051,-0.3139,-0.3144,-0.3148,0,0,0,0,0,-0.2134,-0.2151,-0.2153,-0.2158,-0.2216,-0.2285,-0.2298,-0.2318,-0.2301,-0.2346,-0.2465,-0.2474,-0.278,-0.2783,-0.2825,-0.2846,-0.3053,-0.3052,-0.3051,-0.3137,-0.3143,-0.3148,0,0,0,0,0,0,-0.2127,-0.2156,-0.2159,-0.2184,-0.2237,-0.2287,-0.2305,-0.233,-0.2453,-0.2456,-0.256,-0.2601,-0.2748,-0.279,-0.2788,-0.2915,-0.2882,-0.289,-0.2931,-0.2938,-0.2943,-0.2886,-0.2778,0,0,0,0,0,-0.2128,-0.215,-0.2192,-0.2216,-0.2229,-0.2273,-0.23,-0.2328,-0.2423,-0.2469,-0.2599,-0.269,-0.2774,-0.2857,-0.2949,-0.3098,-0.304,-0.3098,-0.3103,-0.3107,-0.3079,-0.2979,-0.2972,-0.3048,-0.3048,-0.3048,0,0,-0.2126,-0.2146,-0.2156,-0.2216,-0.2241,-0.2294,-0.2288,-0.2337,-0.2403,-0.2497,-0.2665,-0.2744,-0.2814,-0.2949,-0.301,-0.3,-0.3069,-0.3106,-0.3111,-0.3079,-0.2977,-0.297,-0.2963,-0.3047,-0.3047,-0.3047,0,0,-0.2135,-0.2153,-0.2173,-0.2219,-0.2265,-0.2312,-0.2329,-0.2423,-0.2478,-0.2671,-0.2689,-0.2803,-0.3004,-0.3036,-0.3071,-0.316,-0.3091,-0.3141,-0.3155,-0.3061,-0.3054,-0.3046,-0.3027,-0.3017,-0.3151,-0.3151,-0.3152,0,-0.2131,-0.2165,-0.2196,-0.223,-0.2257,-0.2319,-0.236,-0.2443,-0.2614,-0.2647,-0.2735,-0.2901,-0.3034,-0.3062,-0.3118,-0.3175,-0.3106,-0.315,-0.3067,-0.3058,-0.3049,-0.303,-0.3018,-0.3156,-0.3155,-0.3155,-0.3154,0,-0.2161,-0.219,-0.2203,-0.227,-0.2319,-0.237,-0.2458,-0.2545,-0.2643,-0.2715,-0.2815,-0.2986,-0.3046,-0.3103,-0.3194,-0.3151,-0.3122,-0.3083,-0.3059,-0.3047,-0.3029,-0.3015,-0.3162,-0.316,-0.3159,-0.3158,0,0,-0.214,-0.2211,-0.2214,-0.224,-0.2339,-0.2384,-0.2473,-0.2554,-0.2578,-0.276,-0.2788,-0.2988,-0.3009,-0.3042,-0.3097,-0.3089,-0.3083,-0.3081,-0.3074,-0.3073,-0.2891,-0.2826,-0.2805,-0.2996,-0.2992,-0.299,-0.2929,0,-0.2153,-0.221,-0.2251,-0.2324,-0.2356,-0.2418,-0.2496,-0.2572,-0.2674,-0.2748,-0.2814,-0.2898,-0.2988,-0.3032,-0.3025,-0.3068,-0.3034,-0.3105,-0.289,-0.2886,-0.2835,-0.2781,-0.2504,-0.2417,-0.2915,-0.2912,-0.291,0,-0.2161,-0.2202,-0.2255,-0.2325,-0.234,-0.24,-0.2462,-0.2544,-0.2606,-0.2679,-0.2693,-0.275,-0.2801,-0.2871,-0.2847,-0.2868,-0.2875,-0.2901,-0.2897,-0.2777,-0.2789,-0.2493,-0.2372,-0.2885,-0.2887,-0.2889,-0.2891,0,-0.2117,-0.2198,-0.2237,-0.2267,-0.2366,-0.2382,-0.2437,-0.2504,-0.2541,-0.2593,-0.2622,-0.2627,-0.2677,-0.2632,-0.2793,-0.2768,-0.2767,-0.2717,-0.2636,-0.2635,-0.2326,-0.2302,-0.2611,-0.2611,-0.2611,-0.2611,-0.2611,0,-0.211,-0.2136,-0.2216,-0.2238,-0.2266,-0.2347,-0.2367,-0.2418,-0.2467,-0.2477,-0.2553,-0.2564,-0.261,-0.2654,-0.2713,-0.2675,-0.2678,-0.2607,-0.2581,-0.236,-0.2341,-0.2673,-0.2681,-0.2609,-0.2609,-0.261,-0.261,0,-0.2044,-0.2104,-0.2139,-0.2224,-0.2239,-0.2254,-0.2306,-0.2317,-0.2387,-0.2388,-0.2397,-0.2496,-0.2547,-0.2633,-0.2649,-0.2582,-0.2572,-0.2553,-0.2358,-0.2305,-0.2505,-0.2518,-0.2328,-0.2325,-0.2322,-0.2319,-0.2317,0,-0.2014,-0.2027,-0.209,-0.2088,-0.2119,-0.2148,-0.2155,-0.2247,-0.2257,-0.2348,-0.2336,-0.2419,-0.2468,-0.251,-0.2415,-0.2389,-0.2562,-0.2101,-0.1975,-0.2465,-0.2459,-0.2478,-0.2495,-0.1639,-0.1631,-0.1625,-0.162,0,-0.194,-0.1958,-0.198,-0.1976,-0.1983,-0.1992,-0.2019,-0.2024,-0.2122,-0.217,-0.2252,-0.2308,-0.2292,-0.2134,-0.2105,-0.2055,-0.2072,-0.1966,-0.2461,-0.1773,-0.1813,-0.1811,-0.1849,-0.1566,-0.1571,-0.1575,-0.1578,-0.158,-0.1856,-0.1842,-0.1858,-0.1845,-0.1849,-0.184,-0.1803,-0.1879,-0.1922,-0.1979,-0.2118,-0.2109,-0.2042,-0.1824,-0.1738,-0.1574,-0.1696,-0.1554,-0.1572,-0.1597,-0.1546,-0.158,-0.1285,-0.1288,-0.1291,-0.1294,-0.1297,0,-0.1747,-0.1739,-0.1721,-0.1701,-0.1658,-0.1703,-0.17,-0.1669,-0.1708,-0.1797,-0.1893,-0.168,-0.1531,-0.1484,-0.1061,-0.095,-0.0939,-0.0947,-0.0907,-0.0957,-0.1004,-0.0926,-0.0498,-0.0497,-0.0495,-0.0494,0,0,-0.1685,-0.1629,-0.1626,-0.152,-0.1499,-0.1407,-0.1382,-0.1385,-0.1403,-0.1456,-0.1421,-0.1598,-0.1452,-0.1051,-0.0896,-0.0621,-0.0825,-0.0584,-0.1207,-0.1216,-0.1263,-0.1308,-0.1238,0,0,0,0,0]},{"header":{"parameterUnit":"m.s-1","parameterCategory":2,"la1":30.2991,"la2":30.254,"lo1":-89.0895,"lo2":-89.0444,"dy":0.0017,"dx":0.0017,"nx":28,"ny":28,"refTime":"2024-07-04T21:00:00:Z","depth":"2","parameterNumber":3,"parameterNumberName":"V-component_of_CURRENTS"},"data":[0,0,0,0,0,0,0,0,0,0,0,0,0,0,0,0,0,0,0,0,0,0,0,0,0,0,0,0,0,0,0,0,0,0,0,0,0,0,0,0,0,0,0,0,0,0,0,0,0,0,0,0,0,0,0,0,0,0,-0.007,-0.0069,0,-0.0003,-0.0002,-0.0002,0.0054,0.0054,0.0055,0.0056,0.0306,0.0312,0.0318,0,0,0,0,0,0,0,0,0,0,0,0,0,-0.0094,-0.0095,-0.007,-0.0069,-0.0068,-0.0003,-0.0002,-0.0001,0.0054,0.0054,0.0055,0.0056,0.0304,0.0312,0.0319,0,0,0,0,0,0,0,0,0,0,0,0,0,-0.0062,-0.0095,-0.007,-0.0033,-0.0029,-0.0003,-0.0002,-0.0001,0.0054,0.0055,0.0055,0.0056,0.0302,0.0311,0.032,0.0359,0,0,0.0348,0.0352,0,0,0,0,0,0,0,0,-0.0064,-0.0061,-0.0039,-0.0035,-0.0031,0.0018,0.0081,0.0128,0.0053,0.0022,0.0056,0.0057,0.0227,0.0242,0.025,0.037,0.0381,0.0349,0.0354,0.0358,0.0361,0,0,0,0,0,0,0,-0.0066,-0.0063,-0.0043,-0.0038,-0.0033,-0.0,0.0005,0.009,0.0122,0.0025,0.0029,0.0036,0.023,0.024,0.0257,0.0385,0.0348,0.0357,0.0362,0.0366,0.0538,0.0537,0,0,0,0,0,0,-0.0078,-0.0066,-0.0045,-0.0041,-0.0045,-0.0001,0.0005,0.0001,0.0117,0.0134,0.0036,0.0039,0.0224,0.0246,0.0266,0.0337,0.0358,0.0367,0.0372,0.0539,0.0537,0.0536,0,0,0,0,0,0,-0.0079,-0.0077,-0.0048,-0.0051,-0.0045,-0.0002,-0.0006,0.0002,0.0017,0.0123,0.0144,0.0042,0.0226,0.0253,0.035,0.0347,0.0371,0.0379,0.054,0.0538,0.0537,0.0468,0,0,0,0,0,0,-0.008,-0.0079,-0.0089,-0.0052,-0.0045,-0.0043,-0.0006,0.0003,0.002,0.0024,0.0136,0.0159,0.0229,0.0336,0.0359,0.036,0.0386,0.0541,0.0539,0.0537,0.0472,0.0465,0.0458,0,0,0,0,0,-0.0082,-0.01,-0.009,-0.0088,-0.006,-0.0044,-0.0038,-0.0003,0.0019,0.0015,0.0104,0.0156,0.034,0.0344,0.0371,0.0374,0.0542,0.054,0.0538,0.0474,0.0466,0.0459,0,0,0,0,0,0,-0.0113,-0.0095,-0.0084,-0.0095,-0.0076,-0.0035,-0.0032,-0.0009,0.0052,0.0069,0.017,0.02,0.0272,0.033,0.0332,0.0411,0.0439,0.0442,0.0381,0.0375,0.0368,0.0343,0.0394,0,0,0,0,0,-0.0127,-0.014,-0.0111,-0.0121,-0.0111,-0.0073,-0.0062,-0.0041,0.0018,0.0043,0.0122,0.0205,0.0281,0.0335,0.0402,0.047,0.0516,0.0477,0.0471,0.0465,0.0459,0.0519,0.0517,0.0529,0.0529,0.053,0,0,-0.014,-0.0134,-0.0139,-0.013,-0.0107,-0.0113,-0.0064,-0.0053,-0.0051,0.0067,0.0109,0.019,0.029,0.0353,0.0389,0.041,0.0485,0.0462,0.0457,0.0455,0.0516,0.0516,0.0515,0.0528,0.0528,0.0529,0,0,-0.0174,-0.0168,-0.0186,-0.0179,-0.0158,-0.0142,-0.0142,-0.0101,-0.0074,-0.0021,0.0057,0.0154,0.025,0.0335,0.0388,0.0391,0.0442,0.0381,0.0348,0.0405,0.0405,0.0406,0.0465,0.0471,0.0386,0.0386,0.0386,0,-0.0191,-0.0216,-0.0188,-0.0203,-0.0206,-0.016,-0.018,-0.0151,-0.0085,-0.0056,-0.0019,0.0133,0.0248,0.0331,0.0338,0.0383,0.0401,0.0376,0.0398,0.04,0.0401,0.0462,0.0469,0.0383,0.0383,0.0383,0.0384,0,-0.0239,-0.0258,-0.0265,-0.0278,-0.0277,-0.0287,-0.0249,-0.0235,-0.0192,-0.015,-0.0067,0.0078,0.0172,0.0216,0.0297,0.035,0.0354,0.0377,0.042,0.0396,0.0461,0.047,0.0377,0.0379,0.038,0.0381,0,0,-0.0283,-0.0299,-0.0305,-0.0326,-0.0321,-0.0328,-0.0323,-0.0302,-0.029,-0.0212,-0.0171,-0.0015,0.0057,0.0122,0.0223,0.0297,0.037,0.0333,0.0338,0.0393,0.0472,0.0539,0.0556,0.0371,0.0372,0.0373,0.0513,0,-0.0332,-0.0387,-0.0379,-0.0433,-0.0455,-0.0424,-0.0424,-0.0395,-0.0341,-0.0286,-0.0145,-0.0059,0.0017,0.0087,0.0162,0.0329,0.0388,0.0329,0.0484,0.0489,0.0555,0.0568,0.0504,0.0627,0.0523,0.0525,0.0526,0,-0.039,-0.042,-0.0479,-0.0511,-0.0516,-0.0539,-0.0538,-0.053,-0.0442,-0.0382,-0.0295,-0.0188,-0.0033,0.0029,0.0246,0.0186,0.0311,0.0426,0.0434,0.0527,0.0574,0.0634,0.0649,0.0542,0.0541,0.054,0.0539,0,-0.0449,-0.0497,-0.0553,-0.0565,-0.0584,-0.0599,-0.0609,-0.0559,-0.0537,-0.0436,-0.0384,-0.0243,-0.0119,0.0019,0.0248,0.0248,0.0463,0.0508,0.067,0.0676,0.0673,0.0677,0.0626,0.0626,0.0626,0.0625,0.0625,0,-0.0516,-0.0561,-0.0586,-0.0617,-0.067,-0.0662,-0.0691,-0.0664,-0.0601,-0.056,-0.0437,-0.0366,-0.0122,0.0029,0.0208,0.0462,0.0428,0.0671,0.072,0.0647,0.0648,0.0611,0.0607,0.063,0.0629,0.0628,0.0627,0,-0.0569,-0.059,-0.0651,-0.0686,-0.0697,-0.0736,-0.075,-0.0757,-0.0693,-0.0628,-0.0589,-0.0424,-0.0239,-0.003,0.0246,0.0448,0.0669,0.0747,0.0648,0.0685,0.0858,0.0849,0.0992,0.0996,0.0999,0.1002,0.1004,0,-0.0603,-0.0639,-0.0697,-0.0729,-0.0747,-0.0795,-0.0817,-0.0796,-0.0778,-0.0667,-0.0622,-0.0453,-0.0319,0.0076,0.0418,0.073,0.0676,0.0884,0.0914,0.0864,0.0897,0.0883,0.087,0.088,0.0881,0.0881,0.0882,0,-0.0652,-0.067,-0.0713,-0.0771,-0.0815,-0.0867,-0.0885,-0.0871,-0.0817,-0.0777,-0.069,-0.0586,-0.0204,0.0137,0.056,0.0727,0.084,0.0918,0.0882,0.0801,0.0771,0.0799,0.0787,0.0889,0.0888,0.0888,0.0887,0.0887,-0.0673,-0.0713,-0.0757,-0.0812,-0.0865,-0.0897,-0.0913,-0.0922,-0.0911,-0.0786,-0.071,-0.0442,-0.0083,0.0585,0.0712,0.0892,0.0978,0.106,0.1051,0.1044,0.101,0.0987,0.114,0.114,0.1141,0.1142,0.1142,0,-0.0689,-0.0735,-0.079,-0.0857,-0.0907,-0.0926,-0.0927,-0.0901,-0.0889,-0.0758,-0.0669,-0.0133,0.0241,0.0528,0.0869,0.1085,0.1007,0.1022,0.0886,0.0883,0.0879,0.0829,0.0915,0.0914,0.0913,0.0912,0,0,-0.0699,-0.0754,-0.0784,-0.0864,-0.0908,-0.0949,-0.0935,-0.0896,-0.0781,-0.0637,-0.0377,0.0016,0.0438,0.0662,0.0771,0.0816,0.0764,0.0779,0.0958,0.077,0.0761,0.0922,0.0847,0,0,0,0,0]}],[{"header":{"parameterUnit":"m.s-1","parameterCategory":2,"la1":30.2991,"la2":30.254,"lo1":-89.0895,"lo2":-89.0444,"dy":0.0017,"dx":0.0017,"nx":28,"ny":28,"refTime":"2024-07-04T21:00:00:Z","depth":"4","parameterNumber":2,"parameterNumberName":"U-component_of_CURRENTS"},"data":[0,0,0,0,0,0,0,0,0,0,0,0,0,0,0,0,0,0,0,0,0,0,0,0,0,0,0,0,0,0,0,0,0,0,0,0,0,0,0,0,0,0,0,0,0,0,0,0,0,0,0,0,0,0,0,0,0,0,-0.1571,-0.1572,0,-0.1653,-0.1654,-0.1655,-0.1696,-0.1696,-0.1696,-0.1696,-0.1755,-0.1757,-0.1758,0,0,0,0,0,0,0,0,0,0,0,0,0,-0.1502,-0.1503,-0.1571,-0.1572,-0.1573,-0.1653,-0.1654,-0.1655,-0.1696,-0.1696,-0.1696,-0.1696,-0.1755,-0.1757,-0.1758,0,0,0,0,0,0,0,0,0,0,0,0,0,-0.1554,-0.1503,-0.157,-0.1602,-0.1606,-0.1653,-0.1654,-0.1656,-0.1696,-0.1696,-0.1696,-0.1696,-0.1754,-0.1756,-0.1759,-0.1776,0,0,-0.1766,-0.1767,0,0,0,0,0,0,0,0,-0.1551,-0.1556,-0.1596,-0.16,-0.1604,-0.1663,-0.1652,-0.1694,-0.1696,-0.1662,-0.1696,-0.1696,-0.1722,-0.1727,-0.1744,-0.1779,-0.1781,-0.1766,-0.1768,-0.1769,-0.177,0,0,0,0,0,0,0,-0.1547,-0.1553,-0.1604,-0.1597,-0.1602,-0.163,-0.1637,-0.1661,-0.1692,-0.1665,-0.1668,-0.1676,-0.1724,-0.1742,-0.1746,-0.1782,-0.1766,-0.1769,-0.177,-0.1771,-0.1884,-0.1885,0,0,0,0,0,0,-0.1533,-0.1549,-0.1601,-0.1606,-0.1576,-0.1631,-0.1639,-0.1645,-0.1692,-0.1699,-0.1676,-0.1678,-0.1737,-0.1743,-0.1748,-0.1813,-0.1769,-0.1771,-0.1773,-0.1883,-0.1884,-0.1886,0,0,0,0,0,0,-0.1531,-0.1536,-0.1598,-0.1579,-0.1589,-0.1632,-0.1639,-0.1647,-0.1684,-0.1701,-0.1707,-0.1707,-0.1738,-0.1744,-0.1793,-0.1814,-0.1772,-0.1775,-0.1881,-0.1883,-0.1885,-0.1915,0,0,0,0,0,0,-0.1529,-0.1535,-0.1554,-0.1578,-0.159,-0.1638,-0.1639,-0.1648,-0.1687,-0.169,-0.1729,-0.1733,-0.1738,-0.1789,-0.1795,-0.1816,-0.1777,-0.1879,-0.1882,-0.1884,-0.1912,-0.1918,-0.1924,0,0,0,0,0,-0.1526,-0.154,-0.1554,-0.1561,-0.1607,-0.1639,-0.1649,-0.1679,-0.1689,-0.1711,-0.1742,-0.1733,-0.1811,-0.1793,-0.18,-0.1821,-0.1877,-0.1881,-0.1884,-0.191,-0.1917,-0.1923,0,0,0,0,0,0,-0.1522,-0.1546,-0.1562,-0.1584,-0.1618,-0.1646,-0.1671,-0.1692,-0.1735,-0.1742,-0.1757,-0.1765,-0.181,-0.1818,-0.1798,-0.1864,-0.1841,-0.1846,-0.1859,-0.1866,-0.1871,-0.1879,-0.1779,0,0,0,0,0,-0.1528,-0.1548,-0.1575,-0.16,-0.1612,-0.1647,-0.1671,-0.1692,-0.1724,-0.1744,-0.1774,-0.1803,-0.1828,-0.1849,-0.1871,-0.1914,-0.1906,-0.1932,-0.1938,-0.1942,-0.1955,-0.1972,-0.1979,-0.1897,-0.1897,-0.1897,0,0,-0.1539,-0.1552,-0.1569,-0.1601,-0.1626,-0.1654,-0.1662,-0.1699,-0.1735,-0.1743,-0.1808,-0.1824,-0.1843,-0.1887,-0.1909,-0.1899,-0.1957,-0.1947,-0.195,-0.196,-0.1976,-0.1984,-0.1991,-0.19,-0.1899,-0.1899,0,0,-0.1548,-0.1575,-0.1588,-0.1616,-0.1653,-0.1676,-0.1689,-0.1733,-0.1766,-0.1826,-0.1835,-0.1867,-0.1921,-0.1934,-0.1945,-0.1997,-0.1983,-0.201,-0.2049,-0.2065,-0.2072,-0.2077,-0.2052,-0.2056,-0.2016,-0.2016,-0.2016,0,-0.1562,-0.1578,-0.1601,-0.1619,-0.1646,-0.1684,-0.171,-0.1752,-0.1814,-0.1853,-0.1851,-0.1938,-0.1939,-0.1991,-0.2005,-0.2007,-0.201,-0.2018,-0.2071,-0.2077,-0.2082,-0.2055,-0.2058,-0.2018,-0.2018,-0.2018,-0.2018,0,-0.1571,-0.1599,-0.1609,-0.1644,-0.168,-0.171,-0.1759,-0.1815,-0.1858,-0.1902,-0.1977,-0.1991,-0.2041,-0.2043,-0.2039,-0.2086,-0.2071,-0.2069,-0.2049,-0.2092,-0.2061,-0.2064,-0.2021,-0.202,-0.202,-0.2019,0,0,-0.1558,-0.1606,-0.1615,-0.1645,-0.1696,-0.1731,-0.1795,-0.1869,-0.1928,-0.1992,-0.2056,-0.2096,-0.2116,-0.213,-0.213,-0.2144,-0.2155,-0.2131,-0.2131,-0.2097,-0.2175,-0.2006,-0.1992,-0.2175,-0.2176,-0.2177,-0.2127,0,-0.1561,-0.1599,-0.1623,-0.1687,-0.1712,-0.1775,-0.1836,-0.1916,-0.1979,-0.2054,-0.2093,-0.2146,-0.2147,-0.2163,-0.2185,-0.2163,-0.217,-0.2167,-0.2147,-0.2146,-0.1984,-0.1993,-0.2182,-0.2129,-0.213,-0.213,-0.2131,0,-0.1552,-0.1585,-0.1634,-0.1719,-0.1738,-0.1791,-0.1905,-0.1963,-0.2069,-0.2117,-0.2189,-0.2214,-0.225,-0.2231,-0.2245,-0.2252,-0.2223,-0.2202,-0.2199,-0.2037,-0.1983,-0.2086,-0.2135,-0.2135,-0.2135,-0.2134,-0.2134,0,-0.1522,-0.1595,-0.164,-0.1668,-0.1764,-0.1822,-0.1886,-0.1995,-0.2042,-0.2154,-0.2181,-0.2261,-0.2262,-0.2283,-0.2237,-0.2253,-0.2225,-0.2232,-0.2057,-0.2044,-0.2198,-0.2193,-0.2243,-0.2243,-0.2243,-0.2244,-0.2244,0,-0.1494,-0.1539,-0.1645,-0.167,-0.175,-0.1827,-0.191,-0.1993,-0.2079,-0.21,-0.2208,-0.2196,-0.2278,-0.2265,-0.2251,-0.2141,-0.2235,-0.2057,-0.2024,-0.2208,-0.2205,-0.2198,-0.2193,-0.2242,-0.2242,-0.2242,-0.2243,0,-0.1437,-0.15,-0.1564,-0.1685,-0.1728,-0.179,-0.1895,-0.1943,-0.2043,-0.2061,-0.2085,-0.215,-0.2109,-0.2156,-0.2142,-0.2104,-0.2048,-0.1989,-0.2154,-0.2132,-0.1857,-0.1855,-0.1794,-0.1788,-0.1783,-0.1778,-0.1775,0,-0.1398,-0.1425,-0.1557,-0.159,-0.1646,-0.1741,-0.1785,-0.1909,-0.1929,-0.198,-0.1957,-0.196,-0.1975,-0.1825,-0.1903,-0.1876,-0.1862,-0.185,-0.1887,-0.1839,-0.1813,-0.182,-0.1825,-0.1766,-0.1765,-0.1763,-0.1762,0,-0.1322,-0.1385,-0.1434,-0.1506,-0.1568,-0.1623,-0.1692,-0.1692,-0.178,-0.1874,-0.1761,-0.1731,-0.1671,-0.1669,-0.1663,-0.1649,-0.1878,-0.1795,-0.1807,-0.1841,-0.1804,-0.1785,-0.1796,-0.1744,-0.1746,-0.1748,-0.1749,0,-0.1256,-0.1276,-0.1345,-0.1396,-0.1466,-0.1478,-0.1536,-0.1526,-0.1555,-0.1613,-0.1543,-0.1547,-0.1592,-0.1543,-0.1527,-0.1512,-0.1506,-0.1506,-0.1533,-0.1555,-0.1507,-0.1427,-0.1211,0,0,0,0,0,-0.1177,-0.1185,-0.1223,-0.127,-0.1335,-0.1375,-0.1452,-0.1505,-0.1574,-0.1439,-0.149,-0.141,-0.1353,-0.1372,-0.1308,-0.1461,-0.1548,-0.1389,-0.1572,-0.1641,-0.1663,-0.1633,0,0,0,0,0,0,-0.1115,-0.1157,-0.1178,-0.1154,-0.1159,-0.1212,-0.1256,-0.1307,-0.1247,-0.1309,-0.1275,-0.133,-0.13,-0.1342,-0.127,-0.1284,-0.1377,-0.1412,-0.1409,-0.1629,-0.1648,-0.1666,-0.1643,0,0,0,0,0]},{"header":{"parameterUnit":"m.s-1","parameterCategory":2,"la1":30.2991,"la2":30.254,"lo1":-89.0895,"lo2":-89.0444,"dy":0.0017,"dx":0.0017,"nx":28,"ny":28,"refTime":"2024-07-04T21:00:00:Z","depth":"4","parameterNumber":3,"parameterNumberName":"V-component_of_CURRENTS"},"data":[0,0,0,0,0,0,0,0,0,0,0,0,0,0,0,0,0,0,0,0,0,0,0,0,0,0,0,0,0,0,0,0,0,0,0,0,0,0,0,0,0,0,0,0,0,0,0,0,0,0,0,0,0,0,0,0,0,0,-0.0054,-0.0053,0,-0.0028,-0.0028,-0.0027,0.001,0.001,0.0011,0.0012,0.0056,0.0057,0.0057,0,0,0,0,0,0,0,0,0,0,0,0,0,-0.0064,-0.0064,-0.0054,-0.0053,-0.0053,-0.0028,-0.0028,-0.0027,0.001,0.001,0.0011,0.0012,0.0056,0.0057,0.0057,0,0,0,0,0,0,0,0,0,0,0,0,0,-0.0051,-0.0064,-0.0054,-0.0031,-0.0029,-0.0028,-0.0028,-0.0027,0.0009,0.001,0.0012,0.0012,0.0056,0.0056,0.0057,0.0042,0,0,0.006,0.006,0,0,0,0,0,0,0,0,-0.0052,-0.0051,-0.0035,-0.0033,-0.003,-0.0011,-0.0015,-0.0003,0.0009,-0.0006,0.0012,0.0013,0.0035,0.0038,0.0039,0.0044,0.0046,0.006,0.006,0.0061,0.0061,0,0,0,0,0,0,0,-0.0053,-0.0052,-0.0044,-0.0035,-0.0032,-0.002,-0.0017,-0.0012,0.0008,-0.0004,-0.0001,0.0002,0.0037,0.0038,0.0041,0.0046,0.006,0.006,0.0061,0.0061,0.0034,0.0032,0,0,0,0,0,0,-0.0057,-0.0053,-0.0045,-0.0043,-0.0038,-0.002,-0.0017,-0.0018,0.0008,0.0013,0.0001,0.0004,0.0036,0.004,0.0042,0.0022,0.0061,0.0061,0.0062,0.0035,0.0033,0.0032,0,0,0,0,0,0,-0.0057,-0.0056,-0.0046,-0.0047,-0.0044,-0.0021,-0.0023,-0.0018,-0.0011,0.0012,0.0018,0.0004,0.0037,0.0041,0.004,0.0025,0.0062,0.0062,0.0036,0.0034,0.0033,-0.0015,0,0,0,0,0,0,-0.0058,-0.0057,-0.0064,-0.0047,-0.0044,-0.0053,-0.0024,-0.0019,-0.0011,-0.0007,0.0016,0.0022,0.0038,0.0038,0.0041,0.0027,0.0063,0.0038,0.0035,0.0033,-0.0012,-0.0018,-0.0024,0,0,0,0,0,-0.0058,-0.007,-0.0065,-0.0064,-0.0053,-0.0054,-0.0053,-0.0032,-0.0012,-0.002,-0.0002,0.0021,0.0026,0.0038,0.0041,0.0027,0.0039,0.0036,0.0033,-0.0009,-0.0017,-0.0024,0,0,0,0,0,0,-0.0076,-0.0067,-0.006,-0.0068,-0.0066,-0.0048,-0.005,-0.0035,-0.0028,-0.002,0.0007,0.0011,0.0001,0.0017,0.0031,0.001,0.0035,0.0033,0.0002,-0.0005,-0.0011,0.0013,0.0064,0,0,0,0,0,-0.0085,-0.0093,-0.0082,-0.0091,-0.0087,-0.0069,-0.0067,-0.0054,-0.0043,-0.0037,-0.0022,-0.001,-0.0011,-0.0004,-0.0004,-0.0011,0.0068,-0.002,-0.0025,-0.003,-0.0011,0.0099,0.0107,0.0023,0.0023,0.0023,0,0,-0.0094,-0.0091,-0.0095,-0.0096,-0.0087,-0.0099,-0.0065,-0.0064,-0.0076,-0.0035,-0.0046,-0.0034,-0.002,-0.0033,-0.0035,-0.0016,0.0031,-0.0034,-0.0038,-0.0015,0.0098,0.0107,0.0115,0.0021,0.0021,0.0022,0,0,-0.0118,-0.0114,-0.0127,-0.0131,-0.0125,-0.012,-0.0121,-0.0107,-0.0102,-0.0115,-0.009,-0.0076,-0.0085,-0.0066,-0.0061,-0.0098,-0.001,-0.0111,-0.011,-0.0005,0.0005,0.0014,0.012,0.0139,-0.0105,-0.0105,-0.0105,0,-0.0129,-0.0147,-0.0132,-0.0148,-0.0157,-0.0132,-0.0152,-0.015,-0.0142,-0.013,-0.0127,-0.0097,-0.0097,-0.0078,-0.0102,-0.0107,-0.0027,-0.0084,-0.0007,0.0003,0.0014,0.0121,0.0142,-0.0108,-0.0108,-0.0107,-0.0107,0,-0.0165,-0.0181,-0.0189,-0.0206,-0.0214,-0.0228,-0.0223,-0.0228,-0.0217,-0.0197,-0.0175,-0.0152,-0.0122,-0.0134,-0.0136,-0.0077,-0.0037,-0.0031,0.002,0.002,0.0131,0.0155,-0.0112,-0.0111,-0.011,-0.0109,0,0,-0.0189,-0.021,-0.0217,-0.0237,-0.0246,-0.026,-0.0278,-0.0277,-0.027,-0.0244,-0.0209,-0.0212,-0.0158,-0.0148,-0.0126,-0.0045,0.0071,-0.0012,-0.0005,0.0111,0.0326,0.0223,0.024,0.0104,0.0108,0.0111,0.0374,0,-0.0224,-0.0271,-0.0271,-0.0323,-0.0344,-0.0336,-0.0355,-0.0346,-0.0323,-0.0285,-0.0215,-0.0183,-0.0175,-0.0152,-0.0068,0.0033,0.0133,0.0001,0.0294,0.0303,0.0227,0.0263,0.0122,0.0392,0.0398,0.0402,0.0405,0,-0.0265,-0.0292,-0.0343,-0.038,-0.0387,-0.0415,-0.0426,-0.0438,-0.0371,-0.0339,-0.0255,-0.019,-0.008,-0.0073,0.0163,0.0085,0.0203,0.0294,0.0307,0.0251,0.0244,0.0392,0.0449,0.0445,0.0442,0.0439,0.0437,0,-0.03,-0.0348,-0.0394,-0.041,-0.044,-0.0462,-0.0479,-0.0448,-0.0438,-0.0351,-0.0294,-0.0155,-0.0059,0.0107,0.0276,0.0239,0.0559,0.0533,0.057,0.0566,0.0605,0.0592,0.0729,0.0728,0.0728,0.0727,0.0726,0,-0.0341,-0.0382,-0.0419,-0.0446,-0.0502,-0.0505,-0.0534,-0.0523,-0.0462,-0.0396,-0.0311,-0.0191,-0.0004,0.0189,0.0326,0.0526,0.0615,0.0594,0.063,0.0574,0.0555,0.0623,0.0607,0.0737,0.0735,0.0733,0.0731,0,-0.037,-0.0394,-0.0453,-0.0499,-0.0519,-0.0561,-0.0584,-0.0584,-0.052,-0.0418,-0.0376,-0.0178,0.0068,0.0254,0.0547,0.0587,0.0779,0.0833,0.0781,0.0808,0.0708,0.0687,0.09,0.0898,0.0897,0.0896,0.0896,0,-0.0386,-0.0418,-0.0493,-0.0531,-0.0558,-0.0614,-0.0637,-0.0619,-0.0584,-0.038,-0.0304,-0.0062,0.0085,0.0464,0.0602,0.0851,0.0853,0.0929,0.0783,0.0713,0.0729,0.0709,0.0689,0.0894,0.0893,0.0893,0.0893,0,-0.0411,-0.044,-0.0485,-0.056,-0.061,-0.0662,-0.0674,-0.0641,-0.0547,-0.0483,-0.0182,0.0006,0.0274,0.0495,0.067,0.0841,0.085,0.0916,0.0918,0.0782,0.0709,0.0721,0.0703,0.0889,0.0889,0.089,0.089,0,-0.042,-0.0462,-0.0514,-0.0581,-0.0648,-0.0665,-0.0681,-0.0581,-0.0527,-0.0283,-0.0163,0.0131,0.031,0.0496,0.0679,0.0796,0.0787,0.0769,0.0778,0.0784,0.061,0.0491,0.0663,0,0,0,0,0,-0.0417,-0.0463,-0.0527,-0.0598,-0.0662,-0.069,-0.0677,-0.0664,-0.0545,-0.0325,-0.0237,0.0031,0.0317,0.0453,0.0562,0.0568,0.0736,0.068,0.0703,0.0867,0.0872,0.067,0,0,0,0,0,0,-0.0414,-0.048,-0.0518,-0.059,-0.0634,-0.069,-0.0676,-0.06,-0.0469,-0.0309,-0.013,-0.001,0.0273,0.0284,0.0558,0.0589,0.0594,0.0827,0.0826,0.0864,0.0869,0.0872,0.0666,0,0,0,0,0]}]]